Temp
44 45 45 42 41 42 38 37 36 34 34 33 33 32 31 30 29 28 27 27 27 26 27 27 27 27 26 26 27 26 25 24 18 24 28 29 28 28 29 29 30 30 30
45 44 43 40 38 39 37 36 34 34 33 33 32 31 30 29 28 27 26 27 26 25 25 25 25 28 25 25 25 24 24 24 21 18 24 24 25 27 27 26 29 31 30
41 40 39 37 36 38 37 35 34 33 33 32 32 31 29 29 27 27 26 25 25 24 24 24 24 24 23 23 23 22 23 25 23 20 20 24 25 26 25 26 27 28 30
39 38 38 37 37 38 37 33 34 33 31 31 31 30 29 28 27 27 26 24 24 24 25 25 25 24 23 23 23 23 23 21 21 20 19 21 23 26 26 23 23 26 26
39 38 38 38 37 36 33 32 32 32 31 31 28 28 27 26 27 26 26 24 23 23 25 26 26 25 27 26 24 22 22 20 20 20 20 21 22 23 23 25 23 23 25
38 37 38 35 34 33 32 31 30 30 29 28 27 26 25 27 31 31 27 24 25 24 23 24 26 24 24 27 29 30 29 23 20 20 21 20 21 23 25 23 22 20 17
38 37 34 32 31 30 30 29 28 28 27 26 25 25 24 25 33 33 30 26 25 25 25 25 24 26 24 24 26 27 28 29 29 26 21 21 21 23 24 21 21 21 20
35 34 32 31 29 28 28 27 27 27 25 24 23 23 23 24 33 33 32 26 25 24 24 24 23 23 24 24 23 23 24 25 26 26 24 24 25 26 24 24 23 23 23
31 31 29 29 27 25 25 26 25 24 24 22 22 21 22 23 32 32 30 24 23 23 23 24 23 23 25 27 24 21 22 24 28 29 29 29 30 29 28 23 17 15 13
26 26 26 27 26 25 25 23 23 24 23 23 22 23 22 20 31 31 29 23 19 20 21 23 25 23 26 28 23 21 18 20 20 20 22 22 23 21 23 21 18 13 14
25 23 23 24 25 25 24 24 22 22 22 20 20 19 18 19 24 29 29 22 20 19 19 19 21 24 25 28 27 21 17 23 21 16 14 15 17 18 19 21 21 19 15
21 20 21 22 22 21 21 20 20 20 19 18 17 16 17 17 21 28 29 28 26 17 17 20 20 23 25 25 23 23 24 23 12 11 11 12 14 16 18 20 21 21 22
22 21 21 21 20 20 18 19 18 18 18 17 17 15 15 17 19 27 28 28 28 21 19 20 23 22 22 20 20 21 18 13 11 9 10 12 16 18 19 18 20 21 21
22 21 20 20 19 20 20 20 19 18 17 17 16 15 16 16 18 22 21 23 24 22 20 13 15 17 18 18 14 16 15 14 12 11 12 15 16 15 15 17 17 17 15
23 20 19 20 19 18 18 18 19 20 21 18 17 18 16 14 17 20 19 16 15 17 5 2 3 8 9 10 10 11 12 12 11 12 12 11 12 14 13 17 17 15 11
21 19 18 17 17 17 17 17 25 24 26 26 26 21 19 22 23 24 24 24 24 19 1 -2 3 3 5 6 6 7 9 10 11 11 10 11 11 11 12 16 16 13 11
21 19 17 16 16 15 15 15 14 21 26 26 26 24 23 23 26 26 26 24 23 11 -1 -1 -2 -0 0 4 5 6 6 8 10 9 10 10 10 12 13 13 13 13 11
21 20 18 16 16 15 15 16 16 16 17 18 24 22 25 26 26 25 24 18 6 1 -4 -7 -8 -7 -2 0 2 2 4 5 6 7 8 8 10 10 12 12 12 10 10
19 19 17 16 16 15 15 15 16 17 16 16 17 21 23 25 25 24 20 -1 -4 -6 -9 -12 -10 -9 -6 -3 -2 -2 -0 1 3 4 5 7 10 12 12 11 12 11 11
17 18 16 15 14 14 14 15 16 15 14 15 16 14 7 19 11 0 -3 -5 -9 -10 -10 -11 -12 -16 -11 -10 -10 -6 -3 -1 1 4 5 8 9 13 12 11 11 10 9
17 16 14 14 13 13 14 14 14 12 12 13 9 9 10 8 2 -1 -4 -6 -7 -10 -10 -13 -15 -16 -15 -15 -15 -9 -5 -2 -0 3 6 8 11 11 12 12 11 10 9
15 14 12 12 12 12 12 12 10 10 9 5 4 11 16 2 -1 -3 -5 -6 -9 -11 -15 -17 -16 -17 -14 -16 -16 -11 -7 -5 -1 3 5 8 11 11 11 11 10 10 9
13 12 11 11 11 11 9 9 8 7 5 4 6 9 1 -1 -3 -4 -6 -9 -14 -17 -18 -20 -18 -17 -16 -15 -15 -11 -8 -5 -0 3 5 9 10 10 10 9 9 8 8
11 10 8 8 7 7 7 6 5 5 4 3 2 -0 -2 -4 -5 -6 -9 -14 -17 -16 -19 -20 -19 -18 -16 -15 -13 -10 -6 -3 1 5 9 9 9 9 9 9 9 8 8
8 7 6 6 6 5 4 3 2 3 3 1 -1 -2 -4 -5 -7 -8 -13 -14 -14 -19 -18 -18 -19 -19 -17 -15 -13 -11 -6 -0 5 9 11 7 8 7 8 8 8 8 8
6 6 5 5 4 3 2 1 1 1 0 -1 -2 -3 -4 -5 -7 -10 -10 -12 -12 -15 -17 -19 -18 -16 -15 -12 -10 -4 4 8 9 16 8 6 8 7 7 7 7 7 7
MSLP
1004.72 1005.18 1006.24 1006.93 1007.74 1008.49 1009.41 1010.14 1010.83 1011.86 1012.63 1013.59 1014.53 1015.39 1016.38 1017.35 1018.04 1018.94 1019.45 1019.96 1020.31 1020.71 1021.29 1021.49 1021.74 1022.09 1022.77 1023.57 1023.40 1023.46 1023.60 1023.56 1022.22 1018.67 1019.48 1019.41 1019.77 1019.59 1019.14 1018.73 1018.37 1017.82 1017.21
1003.90 1004.44 1005.14 1006.16 1007.05 1007.81 1008.46 1009.15 1010.07 1010.99 1011.92 1012.72 1013.89 1014.78 1015.67 1016.50 1017.33 1018.14 1018.81 1019.33 1019.75 1020.33 1020.62 1021.36 1021.54 1021.87 1022.30 1022.96 1023.19 1023.04 1022.96 1022.78 1022.38 1019.74 1018.44 1019.15 1018.98 1019.22 1018.35 1017.73 1017.34 1016.56 1016.33
1003.33 1003.68 1004.58 1005.36 1006.09 1006.59 1007.22 1008.02 1008.96 1009.97 1011.01 1012.05 1012.91 1013.71 1014.47 1015.33 1016.40 1017.38 1018.09 1018.84 1019.36 1019.55 1020.01 1020.61 1021.10 1021.35 1022.00 1022.42 1022.37 1022.52 1022.58 1022.41 1021.92 1020.90 1017.75 1018.62 1018.36 1018.42 1017.65 1016.83 1016.11 1015.39 1015.13
1002.42 1002.92 1003.53 1004.06 1004.40 1005.19 1006.11 1007.19 1007.95 1008.74 1009.78 1010.81 1011.72 1012.86 1013.93 1014.76 1015.56 1016.53 1017.42 1018.36 1019.09 1019.26 1019.54 1020.24 1020.42 1020.85 1021.53 1021.93 1022.09 1021.88 1021.95 1021.89 1021.63 1020.88 1018.98 1017.33 1017.78 1017.42 1017.29 1015.79 1014.20 1014.23 1013.11
1001.14 1001.89 1002.05 1002.68 1003.65 1004.53 1005.42 1006.32 1007.19 1008.10 1008.83 1009.78 1011.06 1012.25 1013.25 1014.00 1014.73 1015.72 1016.91 1017.56 1018.74 1018.96 1019.13 1019.77 1019.91 1020.31 1020.84 1020.99 1021.37 1021.15 1021.27 1021.06 1020.74 1020.18 1018.75 1017.69 1016.64 1016.28 1015.67 1015.08 1014.01 1012.84 1011.61
999.98 1000.31 1000.86 1001.75 1002.52 1003.35 1004.62 1005.65 1006.53 1007.41 1008.41 1009.31 1010.43 1011.58 1012.82 1013.61 1014.30 1015.02 1015.88 1016.88 1017.71 1018.14 1018.49 1018.86 1019.19 1019.74 1020.08 1020.28 1020.35 1020.17 1020.14 1019.94 1019.77 1019.26 1018.38 1017.51 1015.91 1015.78 1014.70 1014.24 1013.25 1012.28 1009.41
999.09 999.48 1000.23 1000.97 1001.81 1002.77 1003.88 1004.93 1005.78 1006.50 1007.70 1009.04 1010.34 1011.35 1012.69 1013.44 1013.89 1014.60 1015.52 1016.27 1016.60 1017.16 1017.88 1018.18 1018.45 1018.59 1018.97 1019.07 1019.36 1019.36 1019.13 1019.08 1018.73 1018.33 1017.52 1017.09 1015.49 1015.42 1014.65 1012.96 1012.28 1010.98 1008.93
998.33 998.95 999.64 1000.32 1001.34 1002.45 1003.50 1004.71 1005.61 1006.24 1007.22 1008.44 1009.75 1010.95 1012.46 1013.49 1014.18 1014.61 1015.39 1016.10 1016.24 1016.97 1017.34 1017.87 1017.98 1017.98 1018.42 1018.44 1018.56 1018.37 1018.03 1017.96 1017.70 1017.40 1016.72 1015.98 1015.30 1014.48 1013.90 1012.55 1010.80 1009.19 1007.26
997.66 998.43 999.38 1000.13 1001.09 1002.03 1003.19 1004.22 1005.22 1005.98 1007.12 1008.05 1009.10 1010.22 1011.43 1012.38 1013.10 1014.15 1015.23 1015.91 1016.44 1016.76 1017.27 1017.70 1017.99 1017.60 1017.66 1017.56 1017.35 1017.28 1017.06 1016.68 1016.53 1016.08 1015.49 1014.73 1013.86 1013.06 1012.76 1012.08 1010.46 1009.78 1007.05
998.24 998.85 999.26 999.91 1000.72 1001.74 1002.70 1003.66 1004.49 1005.42 1006.56 1007.69 1008.89 1009.88 1010.65 1011.62 1012.23 1013.12 1014.19 1015.18 1015.51 1016.06 1016.89 1016.84 1017.52 1017.09 1016.84 1016.48 1016.33 1016.34 1016.23 1016.05 1015.93 1015.19 1014.50 1013.95 1013.52 1012.95 1012.16 1011.41 1010.26 1008.73 1007.06
999.06 999.38 1000.01 1000.51 1001.21 1002.11 1003.01 1003.94 1004.61 1005.32 1006.52 1007.69 1008.94 1009.96 1010.94 1011.36 1011.96 1012.77 1013.58 1014.48 1014.86 1015.55 1016.09 1016.38 1016.84 1016.41 1016.01 1015.66 1015.68 1015.63 1015.70 1015.25 1014.64 1014.53 1014.05 1013.21 1012.54 1011.66 1010.71 1009.93 1009.03 1008.00 1006.24
999.19 999.79 1000.42 1001.02 1001.48 1002.30 1002.97 1004.00 1004.69 1005.62 1006.72 1007.81 1008.59 1009.50 1010.45 1011.28 1011.95 1012.27 1013.14 1013.93 1014.51 1015.42 1015.76 1016.02 1016.38 1016.23 1016.12 1015.81 1015.21 1015.25 1014.79 1014.46 1014.55 1014.13 1013.40 1012.24 1011.15 1010.15 1009.14 1008.34 1007.45 1006.35 1005.13
1000.26 1000.21 1000.11 1001.08 1001.81 1002.39 1002.89 1003.69 1005.01 1005.45 1006.03 1007.02 1007.86 1008.93 1010.11 1010.86 1011.64 1012.10 1012.40 1013.33 1014.12 1014.90 1015.39 1015.43 1015.72 1015.90 1016.16 1016.15 1015.71 1014.78 1014.30 1014.05 1013.93 1013.60 1012.63 1011.20 1010.21 1008.98 1007.68 1006.36 1005.14 1003.99 1002.61
1000.57 1000.42 1000.84 1000.26 1001.01 1002.18 1003.08 1002.96 1003.58 1004.50 1005.49 1006.69 1007.65 1007.79 1008.80 1009.87 1010.59 1010.94 1011.58 1012.35 1013.51 1014.30 1014.98 1015.29 1015.69 1015.89 1016.06 1015.91 1015.73 1015.02 1014.23 1013.39 1013.21 1012.95 1011.80 1010.40 1009.21 1008.07 1006.77 1005.56 1003.67 1002.31 1000.93
1000.15 1000.69 1000.50 1000.38 1001.13 1001.38 1001.49 1002.01 1002.45 1003.07 1003.01 1004.08 1005.75 1006.77 1007.76 1009.08 1009.59 1010.53 1011.27 1012.01 1012.72 1013.50 1014.97 1015.95 1016.02 1015.99 1016.31 1016.06 1015.54 1014.70 1013.68 1013.22 1012.81 1012.25 1011.27 1009.93 1008.54 1007.29 1005.89 1004.37 1002.92 1001.32 1000.13
999.44 999.65 999.87 1000.39 1001.20 1000.65 1001.22 1001.93 1002.54 1003.19 1003.23 1003.67 1004.16 1004.38 1005.96 1007.00 1009.00 1010.29 1011.66 1012.44 1012.91 1013.27 1014.23 1015.82 1015.66 1015.51 1016.32 1016.24 1015.27 1014.32 1013.72 1013.12 1012.58 1011.94 1010.85 1009.65 1008.18 1006.82 1005.03 1003.13 1001.92 1000.61 998.95
998.09 999.01 999.15 998.80 999.90 1000.64 1000.95 1001.44 1001.68 1003.12 1003.71 1004.09 1004.49 1005.00 1006.25 1006.44 1006.33 1007.90 1009.92 1012.48 1012.95 1014.05 1014.97 1015.78 1015.75 1015.19 1015.98 1016.14 1014.88 1014.41 1013.76 1012.83 1012.36 1011.44 1010.24 1009.02 1007.84 1006.15 1004.29 1002.22 1000.70 999.41 997.71
997.50 997.82 998.24 998.30 998.48 998.03 999.66 1000.59 1001.26 1002.24 1003.13 1004.69 1005.45 1005.73 1006.21 1007.18 1007.56 1008.50 1008.05 1011.24 1013.57 1014.80 1015.67 1016.06 1015.80 1015.40 1015.51 1015.74 1014.69 1014.30 1013.30 1012.72 1011.86 1010.77 1009.83 1008.54 1007.10 1005.50 1003.20 1001.50 999.99 998.36 996.71
996.30 996.87 997.50 997.69 997.95 998.26 998.50 1000.30 1000.95 1001.68 1002.19 1003.76 1005.38 1006.11 1006.96 1007.10 1007.94 1008.83 1009.76 1011.25 1013.11 1014.75 1015.54 1015.97 1016.02 1015.45 1015.66 1015.21 1014.46 1013.94 1013.25 1012.34 1011.17 1010.50 1009.22 1007.82 1006.14 1004.46 1002.44 1000.82 999.09 997.52 995.96
995.50 995.84 996.72 996.80 997.41 998.46 998.22 999.65 1000.34 1001.10 1001.99 1003.24 1004.72 1005.82 1006.99 1007.39 1008.64 1010.03 1010.99 1011.93 1012.93 1014.56 1015.29 1015.48 1015.62 1015.51 1015.70 1014.97 1014.25 1013.64 1012.89 1011.68 1010.74 1009.99 1008.52 1006.92 1005.27 1003.53 1001.68 1000.09 998.41 996.54 994.93
995.28 995.09 995.82 996.59 997.25 997.71 998.40 999.13 999.93 1001.07 1001.93 1003.08 1004.81 1005.93 1007.16 1007.78 1009.35 1010.48 1011.70 1012.42 1012.98 1014.29 1014.83 1015.11 1015.30 1015.13 1015.00 1014.38 1013.79 1013.21 1012.47 1011.49 1010.64 1009.55 1007.93 1006.11 1004.42 1002.71 1001.21 999.66 997.91 996.06 994.35
993.66 994.54 995.68 996.56 997.26 997.94 998.56 999.28 1000.10 1000.87 1001.77 1003.47 1005.23 1006.72 1007.61 1008.64 1009.93 1011.06 1012.03 1012.64 1013.21 1013.80 1013.95 1014.83 1015.14 1014.56 1014.24 1013.95 1013.34 1012.66 1012.05 1011.18 1010.13 1008.79 1007.36 1005.58 1003.85 1002.27 1000.66 999.04 997.30 995.55 993.83
993.64 994.56 995.56 996.43 997.34 998.00 998.81 999.74 1000.45 1001.22 1002.33 1003.70 1005.15 1006.64 1007.93 1009.14 1010.20 1011.16 1012.01 1012.71 1013.17 1013.46 1013.93 1014.38 1014.70 1014.06 1013.45 1013.23 1012.61 1011.90 1011.66 1010.57 1009.57 1008.27 1006.75 1004.86 1003.35 1001.96 1000.43 998.75 996.95 995.11 993.46
993.89 994.82 995.82 996.60 997.43 998.34 999.47 1000.41 1001.05 1001.76 1002.55 1003.94 1005.76 1006.99 1008.17 1009.27 1010.34 1011.23 1011.94 1012.45 1013.08 1013.45 1013.78 1014.10 1014.19 1013.31 1012.73 1012.22 1011.42 1010.79 1010.25 1009.39 1008.54 1007.31 1005.86 1004.33 1003.11 1001.77 1000.24 998.55 996.88 995.10 993.33
994.87 995.77 996.60 997.32 998.23 999.21 1000.17 1000.79 1001.50 1002.26 1003.37 1004.81 1006.13 1007.28 1008.48 1009.49 1010.46 1011.09 1011.71 1012.58 1012.85 1013.28 1013.31 1013.45 1013.02 1012.56 1012.13 1011.35 1010.60 1009.78 1008.88 1007.92 1006.98 1005.97 1004.59 1003.77 1002.77 1001.67 1000.14 998.52 996.76 994.92 993.16
996.19 996.86 997.52 998.16 998.91 999.58 1000.14 1001.14 1002.36 1003.43 1004.45 1005.63 1006.72 1007.73 1008.55 1009.47 1010.25 1011.03 1011.73 1012.26 1012.77 1013.02 1012.77 1012.49 1012.20 1011.88 1011.19 1010.51 1009.54 1008.57 1007.63 1006.80 1005.96 1004.61 1003.85 1003.08 1002.35 1001.30 999.95 998.39 996.72 995.14 993.31
Wind_Speed
15 17 16 14 14 13 12 12 13 11 13 14 14 14 13 12 10 9 7 7 7 6 4 5 6 5 3 4 4 5 6 7 12 12 5 7 12 14 13 12 13 14 14
15 14 16 12 13 15 13 14 13 14 13 14 13 13 13 12 11 11 10 9 9 8 7 6 5 5 6 6 5 7 8 7 9 22 12 10 12 14 15 17 14 13 15
10 12 12 12 14 17 16 14 15 14 14 13 14 15 15 14 13 11 10 9 8 8 7 7 7 6 6 5 6 6 6 7 8 12 20 11 12 12 16 15 16 16 14
12 13 15 17 18 17 14 14 15 15 16 16 15 14 13 13 12 11 10 8 7 7 7 7 7 7 8 7 6 7 7 8 9 11 15 17 13 13 13 16 16 13 15
13 14 18 15 14 13 14 15 14 15 14 15 15 13 12 12 10 12 10 10 9 8 7 7 6 7 13 11 6 6 8 8 8 11 13 16 16 15 16 14 18 17 16
16 18 15 14 15 15 14 14 14 14 14 14 14 14 13 9 20 22 14 10 10 9 9 8 8 7 9 14 15 16 14 9 11 11 12 16 23 17 16 17 17 17 24
15 13 13 13 14 14 14 15 16 16 14 13 12 12 12 10 22 22 20 9 10 9 8 7 7 6 7 7 12 16 17 20 23 17 18 16 22 19 20 22 20 20 22
12 11 12 14 14 13 13 13 13 12 14 13 12 12 10 8 19 19 20 8 8 8 8 7 6 6 7 8 9 10 11 13 15 13 16 17 18 19 18 18 22 23 19
11 12 12 12 12 13 14 14 12 12 12 11 12 14 14 11 22 20 15 8 7 7 5 6 7 7 10 14 10 10 12 12 15 25 28 33 33 33 31 19 17 16 20
3 2 7 10 12 13 14 14 12 12 12 11 11 11 13 12 22 22 16 6 7 5 6 6 13 8 14 14 10 8 11 11 13 15 12 16 21 18 29 18 14 17 17
4 6 6 6 9 10 11 9 11 12 12 11 11 9 10 12 13 20 20 9 6 6 5 4 5 10 12 15 17 7 9 14 14 10 11 11 12 13 12 12 15 15 17
6 6 6 7 7 9 12 10 11 12 12 11 11 10 8 10 12 19 20 15 13 6 5 4 3 10 13 14 11 14 18 15 7 8 10 11 12 12 12 13 17 18 17
3 5 10 9 8 10 12 12 10 10 10 11 11 10 8 8 7 19 19 16 14 5 4 5 5 9 11 9 13 15 11 5 7 9 11 12 12 13 18 17 18 20 21
4 6 7 12 13 11 8 10 11 11 11 10 10 11 10 10 10 10 7 9 10 6 4 3 2 4 7 8 7 9 6 6 8 10 11 13 13 14 14 15 16 15 16
8 8 8 8 10 11 11 12 12 13 16 15 13 12 13 11 12 15 13 7 6 7 6 2 1 0 3 4 5 6 6 7 8 9 11 13 13 14 15 15 15 15 16
10 8 9 8 8 9 9 7 17 16 24 25 25 18 12 17 25 23 18 17 16 15 4 2 2 2 3 5 5 6 7 9 9 10 11 12 14 15 17 15 15 14 16
12 10 9 10 10 9 8 8 10 12 21 22 23 24 22 23 31 26 20 15 14 8 2 2 3 2 3 5 5 5 8 9 11 10 11 12 14 15 18 16 16 15 15
12 13 10 9 10 12 12 11 10 12 11 9 17 18 25 26 24 22 24 16 5 3 2 2 3 2 2 5 4 6 8 9 9 10 12 13 13 15 16 16 16 17 17
10 9 9 8 9 10 11 10 11 11 12 12 11 15 18 24 22 21 21 4 5 4 3 2 3 2 3 5 4 6 8 9 10 11 11 12 13 14 16 17 17 23 22
10 13 12 9 10 10 11 12 12 12 13 13 12 10 3 14 8 5 3 3 4 2 3 3 4 2 5 4 4 6 8 8 9 10 12 12 13 14 16 18 17 18 17
9 8 12 8 10 11 11 12 12 12 12 11 9 8 11 8 8 6 5 4 4 3 3 2 3 3 4 4 4 5 7 9 9 11 11 12 13 15 16 16 17 17 17
8 8 10 10 10 11 11 11 11 12 13 11 10 11 20 6 6 6 5 4 3 3 2 2 4 4 4 5 4 5 7 9 10 11 12 13 13 15 16 17 17 17 17
8 10 10 9 9 12 11 10 11 12 12 12 12 9 8 7 6 6 5 3 2 1 2 2 5 5 4 6 5 5 7 10 11 12 13 13 13 14 16 17 18 17 17
9 10 11 10 9 10 10 11 10 13 14 13 10 9 8 7 6 6 4 3 2 2 1 2 5 6 6 6 5 5 7 10 9 12 18 11 13 16 16 17 17 21 18
9 9 10 10 11 10 10 10 10 11 12 11 9 8 7 7 5 4 3 2 2 2 3 4 4 6 9 10 11 11 12 18 16 18 9 8 13 18 16 15 18 19 21
9 9 9 8 9 10 10 11 10 10 10 9 8 8 7 6 5 4 3 2 2 3 4 3 5 9 10 9 11 13 16 18 17 22 6 5 10 13 14 17 23 17 20
Wind_Direction
195 195 199 197 193 192 189 187 180 168 172 176 178 172 172 174 173 173 174 175 178 173 170 175 181 173 191 219 218 222 234 238 267 282 272 298 299 297 295 293 290 285 286
206 193 199 188 185 192 191 185 173 175 176 174 172 172 172 173 170 177 179 182 180 178 172 180 185 195 209 218 229 237 243 243 268 287 297 297 291 296 296 294 288 287 285
194 189 190 188 187 197 195 184 174 171 173 172 171 177 175 173 172 179 176 175 179 176 169 179 189 191 222 226 222 236 249 259 264 277 291 292 295 302 296 291 289 285 275
193 193 197 197 197 198 188 179 176 174 170 178 180 176 173 171 171 172 173 172 176 177 176 191 198 202 220 228 236 245 254 262 266 272 282 295 292 291 286 294 291 281 284
197 201 208 203 195 187 180 180 177 178 177 172 167 173 172 168 167 167 167 168 177 179 184 201 207 219 237 238 243 242 248 256 264 270 281 289 292 295 291 294 287 291 282
199 208 201 189 185 184 179 177 173 174 171 168 174 169 166 171 177 179 168 171 177 179 189 201 214 222 239 262 265 272 269 267 266 270 279 285 288 290 296 294 289 290 292
207 204 191 181 181 180 174 173 178 176 165 168 163 160 168 167 183 184 183 177 174 179 189 198 215 225 229 240 261 272 277 279 277 280 279 278 288 291 290 290 283 281 278
200 192 182 179 178 172 170 178 172 163 165 162 160 157 151 166 188 190 192 172 172 179 195 208 228 245 247 257 257 263 267 265 269 268 270 276 276 282 274 281 290 291 288
189 189 181 174 166 163 172 171 163 157 160 161 157 154 159 167 184 188 185 169 187 192 193 234 239 244 256 281 280 280 277 272 279 283 286 286 288 295 295 292 284 284 284
35 114 146 158 162 170 168 165 163 162 158 153 157 165 159 158 182 184 179 173 176 171 213 220 241 238 267 282 276 283 287 290 289 278 285 296 289 282 284 279 282 279 283
112 120 128 142 154 159 153 157 151 151 150 153 152 149 148 160 183 183 190 180 175 191 198 195 223 254 270 284 297 296 281 286 304 309 294 288 283 279 279 271 267 271 279
137 126 133 140 142 145 146 144 149 151 150 156 152 150 159 159 179 189 194 183 194 178 190 186 234 271 297 295 300 293 301 317 307 296 290 289 292 289 286 285 279 273 268
167 171 154 149 147 156 153 154 156 160 163 167 168 161 160 158 174 190 184 193 200 159 156 208 262 300 297 301 298 309 319 303 295 294 290 292 292 294 297 295 283 282 279
231 190 184 169 161 167 174 168 164 174 173 172 178 165 161 163 172 173 167 176 188 186 183 94 266 286 282 291 296 303 298 301 299 292 290 293 297 298 299 290 296 297 293
208 201 193 185 184 178 179 181 184 194 182 171 176 169 160 173 181 173 169 171 161 163 114 82 69 252 294 281 278 286 306 305 298 296 297 299 299 298 296 293 298 297 290
209 198 191 183 195 176 177 181 209 201 195 190 179 165 164 161 165 168 174 180 181 142 99 135 180 172 269 281 290 314 309 299 296 298 295 298 299 300 294 300 301 297 295
217 207 193 174 177 181 176 178 169 193 197 193 179 166 162 161 162 164 163 168 172 121 105 168 204 168 256 276 297 300 293 297 297 293 297 298 295 298 299 306 304 301 297
227 214 198 191 188 170 174 176 168 169 169 171 174 160 158 164 159 161 149 144 131 82 151 186 211 207 244 268 291 290 296 295 295 302 297 295 292 298 307 308 307 305 302
222 211 199 191 181 177 159 170 168 164 153 146 147 153 164 161 159 154 146 125 144 163 181 213 236 220 260 266 277 284 284 287 298 296 290 291 301 301 311 309 307 308 304
222 209 190 174 165 172 161 167 163 158 153 150 156 151 136 161 149 123 108 122 127 161 187 205 239 225 254 252 265 275 284 295 300 292 292 293 299 312 313 312 311 310 308
210 186 175 171 172 168 169 167 157 153 151 149 141 148 156 137 137 135 144 151 147 183 186 222 256 241 254 254 250 271 286 290 289 288 293 301 302 316 315 312 311 309 309
182 167 167 170 162 165 163 157 154 150 144 130 132 167 152 121 132 140 152 154 173 195 146 218 263 250 255 261 254 278 288 289 290 291 295 299 312 317 317 315 314 315 313
161 155 156 156 158 155 151 151 151 143 136 137 144 161 132 144 143 148 157 157 183 222 202 198 260 268 253 249 236 236 271 282 285 292 292 301 318 319 319 317 319 317 321
145 147 145 143 142 143 144 147 140 139 137 137 140 135 140 142 146 156 151 138 203 249 240 247 249 263 281 273 263 257 258 271 281 287 296 301 318 318 318 320 320 321 318
123 129 135 141 142 140 138 133 131 133 132 137 134 131 131 131 145 145 129 171 225 256 268 263 257 264 268 281 280 280 282 293 299 298 289 299 318 313 319 322 324 325 324
119 126 130 132 133 134 128 124 124 129 135 131 131 134 136 141 138 137 154 199 241 262 272 268 279 282 288 284 284 293 303 306 307 314 295 307 320 319 322 326 330 329 329